Bennington, VT

1:35 PM EST on December 08, 2019 (GMT -0500)
Morse State

Weather History for KDDH - November, 2019

Change the Weather History Date:

Sunday, November 17, 2019

  Actual Average Record
Temperature  
Mean Temperature 25 °F 38 °F  
Max Temperature 38 °F 47 °F 68 °F (2006)
Min Temperature 11 °F 30 °F 18 °F (2012)
Degree Days  
Heating Degree Days 40 27  
Month to date heating degree days 538 415  
Since 1 July heating degree days 1192 1236  
Cooling Degree Days 0 0  
Month to date cooling degree days 0 0  
Year to date cooling degree days 375 313  
Moisture  
Dew Point 14 °F    
Average Humidity 56    
Maximum Humidity 84    
Minimum Humidity 27    
Precipitation  
Precipitation 0.00 in 0.10 in 0.91 in (2002)
Month to date precipitation 0.72 1.75  
Year to date precipitation 36.40 36.55  
Sea Level Pressure  
Sea Level Pressure 30.34 in    
Wind  
Wind Speed 3 mph (SE)    
Max Wind Speed 17 mph    
Max Gust Speed 21 mph    
Visibility 10 miles    
Events      
T = Trace of Precipitation, MM = Missing Value Source: NWS Daily Summary

Daily Weather History Graph

Daily Weather History Graph

Search for Another Location

Airport or City:

Astronomy

Nov. 17, 2019 Rise Set
Actual Time 6:47 AM EST 4:28 PM EST
Civil Twilight 6:16 AM EST 4:58 PM EST
Nautical Twilight 5:42 AM EST 5:33 PM EST
Astronomical Twilight 5:08 AM EST 6:06 PM EST
Moon 8:59 PM EST (11/17) 11:32 AM EST (11/17)
Length of Visible Light 10h 42m
Length of Day
9h 40m
Waning Gibbous, 73% of the Moon is Illuminated
Nov 17
Waning Gibbous
Nov 19
Last Quarter
Nov 26
New
Dec 4
First Quarter
Dec 12
Full

Hourly Weather History & Observations

Time (EST) Temp. Windchill Dew Point Humidity Pressure Visibility Wind Dir Wind Speed Gust Speed Precip Events Conditions
12:54 AM 14.0 °F - 3.9 °F 64% 30.48 in 10.0 mi Calm Calm - N/A   Clear
2:54 AM 12.0 °F - 5.0 °F 73% 30.48 in 10.0 mi Calm Calm - N/A   Clear
3:54 AM 10.9 °F - 6.1 °F 81% 30.47 in 10.0 mi Calm Calm - N/A   Clear
4:54 AM 12.0 °F - 7.0 °F 80% 30.46 in 10.0 mi Calm Calm - N/A   Clear
6:54 AM 10.9 °F - 7.0 °F 84% 30.47 in 10.0 mi Calm Calm - N/A   Clear
7:54 AM 17.1 °F - 8.1 °F 68% 30.46 in 10.0 mi Calm Calm - N/A   Clear
8:54 AM 21.9 °F - 9.0 °F 58% 30.45 in 10.0 mi Calm Calm - N/A   Clear
9:54 AM 28.0 °F - 9.0 °F 45% 30.46 in 10.0 mi Calm Calm - N/A   Clear
10:54 AM 33.1 °F - 12.0 °F 42% 30.43 in 10.0 mi Calm Calm - N/A   Clear
11:54 AM 36.0 °F 30.3 °F 5.0 °F 27% 30.38 in 10.0 mi Variable 6.9 mph - N/A   Clear
12:54 PM 37.0 °F 32.4 °F 7.0 °F 29% 30.35 in 10.0 mi SSE 5.8 mph - N/A   Clear
2:54 PM 35.1 °F 27.9 °F 19.0 °F 52% 30.31 in 10.0 mi SSW 9.2 mph - N/A   Clear
3:54 PM 34.0 °F 25.0 °F 18.0 °F 52% 30.30 in 10.0 mi SE 12.7 mph - N/A   Clear
4:54 PM 33.1 °F 28.7 °F 19.0 °F 56% 30.29 in 10.0 mi East 4.6 mph - N/A   Mostly Cloudy
5:27 PM 33.1 °F - 19.9 °F 59% 30.24 in 10.0 mi Calm Calm - N/A   Overcast
5:54 PM 33.1 °F 30.0 °F 21.0 °F 61% 30.27 in 10.0 mi Variable 3.5 mph - N/A   Overcast
6:54 PM 34.0 °F 31.0 °F 21.9 °F 61% 30.25 in 10.0 mi Variable 3.5 mph - N/A   Overcast
7:54 PM 34.0 °F - 23.0 °F 64% 30.22 in 10.0 mi Calm Calm - N/A   Overcast
8:54 PM 35.1 °F - 23.0 °F 61% 30.19 in 10.0 mi Calm Calm - N/A   Overcast
9:54 PM 35.1 °F - 24.1 °F 64% 30.17 in 10.0 mi North - - N/A   Overcast
10:54 PM 35.1 °F 30.1 °F 24.1 °F 64% 30.14 in 10.0 mi ESE 5.8 mph - N/A   Overcast
11:54 PM 35.1 °F 32.2 °F 24.1 °F 64% 30.12 in 10.0 mi ENE 3.5 mph - N/A   Overcast